QPF
0.00 0.00 0.00 0.00 0.00 0.00 0.00 0.00 0.00 0.00 0.00 0.00 0.00 0.00 0.00 0.00 0.00 0.00 0.00 0.00 0.00 0.00 0.00 0.00 0.00 0.00 0.00 0.00 0.00 0.00 0.00 0.00 0.00 0.00 0.00 0.00 0.00 0.00 0.00 0.00 0.00 0.00 0.00 0.00 0.00 0.00 0.00
0.00 0.00 0.00 0.00 0.00 0.00 0.00 0.00 0.00 0.00 0.00 0.00 0.00 0.00 0.00 0.00 0.00 0.00 0.00 0.00 0.00 0.00 0.00 0.00 0.00 0.00 0.00 0.00 0.00 0.00 0.00 0.00 0.00 0.00 0.00 0.00 0.00 0.00 0.00 0.00 0.00 0.00 0.00 0.00 0.00 0.00 0.00
0.00 0.00 0.00 0.00 0.00 0.00 0.00 0.00 0.00 0.00 0.00 0.00 0.00 0.00 0.00 0.00 0.00 0.00 0.00 0.00 0.00 0.00 0.00 0.00 0.00 0.00 0.00 0.00 0.00 0.00 0.00 0.00 0.00 0.00 0.00 0.00 0.00 0.00 0.00 0.00 0.00 0.00 0.00 0.00 0.00 0.00 0.00
0.00 0.00 0.00 0.00 0.00 0.00 0.00 0.00 0.00 0.00 0.00 0.00 0.00 0.00 0.00 0.00 0.00 0.00 0.00 0.00 0.00 0.00 0.00 0.00 0.00 0.00 0.00 0.00 0.00 0.00 0.00 0.00 0.00 0.00 0.00 0.00 0.00 0.00 0.00 0.00 0.00 0.00 0.00 0.00 0.00 0.00 0.00
0.00 0.00 0.00 0.00 0.00 0.00 0.00 0.00 0.00 0.00 0.00 0.00 0.00 0.00 0.00 0.00 0.00 0.00 0.00 0.00 0.00 0.00 0.00 0.00 0.00 0.00 0.00 0.00 0.00 0.00 0.00 0.00 0.00 0.00 0.00 0.00 0.00 0.00 0.00 0.00 0.00 0.00 0.00 0.00 0.00 0.00 0.00
0.00 0.00 0.00 0.00 0.00 0.00 0.00 0.00 0.00 0.00 0.00 0.00 0.00 0.00 0.00 0.00 0.00 0.00 0.00 0.00 0.00 0.00 0.00 0.00 0.00 0.00 0.00 0.00 0.00 0.00 0.00 0.00 0.00 0.00 0.00 0.00 0.00 0.00 0.00 0.00 0.00 0.00 0.00 0.00 0.00 0.00 0.00
0.00 0.00 0.00 0.00 0.00 0.00 0.00 0.00 0.00 0.00 0.00 0.00 0.00 0.00 0.00 0.00 0.00 0.00 0.00 0.00 0.00 0.00 0.00 0.00 0.00 0.00 0.00 0.00 0.00 0.00 0.00 0.00 0.00 0.00 0.00 0.00 0.00 0.00 0.00 0.00 0.00 0.00 0.00 0.00 0.00 0.00 0.00
0.00 0.00 0.00 0.00 0.00 0.00 0.00 0.00 0.00 0.00 0.00 0.00 0.00 0.00 0.00 0.00 0.00 0.00 0.00 0.00 0.00 0.00 0.00 0.00 0.00 0.00 0.00 0.00 0.00 0.00 0.00 0.00 0.00 0.00 0.00 0.00 0.00 0.00 0.00 0.00 0.00 0.00 0.00 0.00 0.00 0.00 0.00
0.00 0.00 0.00 0.00 0.00 0.00 0.00 0.00 0.00 0.00 0.00 0.00 0.00 0.00 0.00 0.00 0.00 0.00 0.00 0.00 0.00 0.00 0.00 0.00 0.00 0.00 0.00 0.00 0.00 0.00 0.00 0.00 0.00 0.00 0.00 0.00 0.00 0.00 0.00 0.00 0.00 0.00 0.00 0.00 0.00 0.00 0.00
0.00 0.00 0.00 0.00 0.00 0.00 0.00 0.00 0.00 0.00 0.00 0.00 0.00 0.00 0.00 0.00 0.00 0.00 0.00 0.00 0.00 0.00 0.00 0.00 0.00 0.00 0.00 0.00 0.00 0.00 0.00 0.00 0.00 0.00 0.00 0.00 0.00 0.00 0.00 0.00 0.00 0.00 0.00 0.00 0.00 0.00 0.00
0.00 0.00 0.00 0.00 0.00 0.00 0.00 0.00 0.00 0.00 0.00 0.00 0.00 0.00 0.00 0.00 0.00 0.00 0.00 0.00 0.00 0.00 0.00 0.00 0.00 0.00 0.00 0.00 0.00 0.00 0.00 0.00 0.00 0.00 0.00 0.00 0.00 0.00 0.00 0.00 0.00 0.00 0.00 0.00 0.00 0.00 0.00
0.00 0.00 0.00 0.00 0.00 0.00 0.00 0.00 0.00 0.00 0.00 0.00 0.00 0.00 0.00 0.00 0.00 0.00 0.00 0.00 0.00 0.02 0.01 0.00 0.00 0.00 0.00 0.00 0.00 0.00 0.00 0.00 0.00 0.00 0.00 0.00 0.00 0.00 0.00 0.00 0.00 0.00 0.00 0.00 0.00 0.00 0.00
0.00 0.00 0.00 0.00 0.00 0.00 0.00 0.00 0.00 0.00 0.00 0.00 0.00 0.00 0.00 0.00 0.00 0.00 0.00 0.00 0.00 0.02 0.00 0.00 0.00 0.00 0.00 0.00 0.00 0.00 0.00 0.00 0.00 0.00 0.00 0.00 0.00 0.00 0.00 0.00 0.00 0.00 0.00 0.00 0.01 0.02 0.01
0.00 0.00 0.00 0.00 0.00 0.00 0.00 0.00 0.00 0.00 0.00 0.00 0.00 0.00 0.00 0.00 0.00 0.00 0.00 0.00 0.00 0.00 0.00 0.00 0.00 0.00 0.00 0.00 0.00 0.00 0.00 0.00 0.00 0.00 0.00 0.00 0.00 0.00 0.00 0.00 0.00 0.00 0.00 0.00 0.00 0.00 0.01
0.00 0.00 0.00 0.00 0.00 0.00 0.00 0.00 0.00 0.00 0.00 0.00 0.00 0.00 0.00 0.00 0.00 0.00 0.00 0.00 0.00 0.00 0.00 0.00 0.00 0.00 0.00 0.00 0.00 0.00 0.00 0.00 0.00 0.00 0.00 0.00 0.00 0.00 0.00 0.00 0.00 0.00 0.00 0.00 0.00 0.00 0.00
0.00 0.00 0.00 0.00 0.00 0.00 0.00 0.00 0.00 0.00 0.00 0.00 0.00 0.00 0.00 0.00 0.00 0.00 0.00 0.00 0.00 0.00 0.00 0.00 0.00 0.00 0.00 0.00 0.00 0.00 0.00 0.00 0.00 0.00 0.00 0.00 0.00 0.00 0.00 0.00 0.00 0.00 0.00 0.00 0.00 0.00 0.00
0.00 0.00 0.00 0.00 0.00 0.00 0.00 0.00 0.00 0.00 0.00 0.00 0.00 0.00 0.00 0.00 0.00 0.00 0.00 0.00 0.00 0.00 0.00 0.00 0.00 0.00 0.00 0.00 0.00 0.00 0.00 0.00 0.00 0.00 0.00 0.00 0.00 0.00 0.00 0.00 0.00 0.00 0.00 0.00 0.00 0.00 0.00
0.00 0.00 0.00 0.00 0.00 0.00 0.00 0.00 0.00 0.00 0.00 0.00 0.00 0.00 0.00 0.00 0.00 0.00 0.00 0.00 0.00 0.00 0.00 0.00 0.00 0.00 0.00 0.00 0.00 0.00 0.00 0.00 0.00 0.00 0.00 0.00 0.00 0.00 0.00 0.00 0.00 0.00 0.00 0.00 0.00 0.00 0.00
0.00 0.00 0.00 0.00 0.00 0.00 0.00 0.00 0.00 0.00 0.00 0.00 0.00 0.00 0.00 0.00 0.00 0.00 0.00 0.00 0.00 0.00 0.00 0.00 0.00 0.00 0.00 0.00 0.00 0.00 0.00 0.00 0.00 0.00 0.00 0.00 0.00 0.00 0.00 0.00 0.00 0.00 0.00 0.00 0.00 0.00 0.00
0.00 0.00 0.00 0.00 0.00 0.00 0.00 0.00 0.00 0.00 0.00 0.00 0.00 0.00 0.00 0.00 0.00 0.00 0.00 0.00 0.00 0.00 0.00 0.00 0.00 0.00 0.00 0.00 0.00 0.00 0.00 0.00 0.00 0.00 0.00 0.00 0.00 0.00 0.00 0.00 0.00 0.00 0.00 0.00 0.00 0.00 0.00
0.00 0.00 0.00 0.00 0.00 0.00 0.00 0.00 0.00 0.00 0.00 0.00 0.00 0.00 0.00 0.00 0.00 0.00 0.00 0.00 0.00 0.00 0.00 0.00 0.00 0.00 0.00 0.00 0.00 0.00 0.00 0.00 0.00 0.00 0.00 0.00 0.00 0.00 0.00 0.00 0.00 0.00 0.00 0.00 0.00 0.00 0.00
0.00 0.00 0.00 0.00 0.00 0.00 0.00 0.00 0.00 0.00 0.00 0.00 0.00 0.00 0.00 0.00 0.00 0.00 0.00 0.00 0.00 0.00 0.00 0.00 0.00 0.00 0.00 0.00 0.00 0.00 0.00 0.00 0.00 0.00 0.00 0.00 0.00 0.00 0.00 0.00 0.00 0.00 0.00 0.00 0.00 0.00 0.00
0.00 0.00 0.00 0.00 0.00 0.00 0.00 0.00 0.00 0.00 0.00 0.00 0.00 0.00 0.00 0.00 0.00 0.00 0.00 0.00 0.00 0.00 0.00 0.00 0.00 0.00 0.00 0.00 0.00 0.00 0.00 0.00 0.00 0.00 0.00 0.00 0.00 0.00 0.00 0.00 0.00 0.00 0.00 0.00 0.00 0.00 0.00
0.00 0.00 0.00 0.00 0.00 0.00 0.00 0.00 0.00 0.00 0.00 0.00 0.00 0.00 0.00 0.00 0.00 0.00 0.00 0.00 0.00 0.00 0.00 0.00 0.00 0.00 0.00 0.00 0.00 0.00 0.00 0.00 0.00 0.00 0.00 0.00 0.00 0.00 0.00 0.00 0.00 0.00 0.00 0.00 0.00 0.00 0.00
0.00 0.00 0.00 0.00 0.00 0.00 0.00 0.00 0.00 0.00 0.00 0.00 0.00 0.00 0.00 0.00 0.00 0.00 0.00 0.00 0.00 0.00 0.00 0.00 0.00 0.00 0.00 0.00 0.00 0.00 0.00 0.00 0.00 0.00 0.00 0.00 0.00 0.00 0.00 0.00 0.00 0.00 0.00 0.00 0.00 0.00 0.00
0.00 0.00 0.00 0.00 0.00 0.00 0.00 0.00 0.00 0.00 0.00 0.00 0.00 0.00 0.00 0.00 0.00 0.00 0.00 0.00 0.00 0.00 0.00 0.00 0.00 0.00 0.00 0.00 0.00 0.00 0.00 0.00 0.00 0.00 0.00 0.00 0.00 0.00 0.00 0.00 0.00 0.00 0.00 0.00 0.00 0.00 0.00
0.00 0.00 0.00 0.00 0.00 0.00 0.00 0.00 0.00 0.00 0.00 0.00 0.00 0.00 0.00 0.00 0.00 0.00 0.00 0.00 0.00 0.00 0.00 0.00 0.00 0.00 0.00 0.00 0.00 0.00 0.00 0.00 0.00 0.00 0.00 0.00 0.00 0.00 0.00 0.00 0.00 0.00 0.00 0.00 0.00 0.00 0.00
0.00 0.00 0.00 0.00 0.00 0.00 0.00 0.00 0.00 0.00 0.00 0.00 0.00 0.00 0.00 0.00 0.00 0.00 0.00 0.00 0.00 0.00 0.00 0.00 0.00 0.00 0.00 0.00 0.00 0.00 0.00 0.00 0.00 0.00 0.00 0.00 0.00 0.00 0.00 0.00 0.00 0.00 0.00 0.00 0.00 0.00 0.00
0.00 0.00 0.00 0.00 0.00 0.00 0.00 0.00 0.00 0.00 0.00 0.00 0.00 0.00 0.00 0.00 0.00 0.00 0.00 0.00 0.00 0.00 0.00 0.00 0.00 0.00 0.00 0.00 0.00 0.00 0.00 0.00 0.00 0.00 0.00 0.00 0.00 0.00 0.00 0.00 0.00 0.00 0.00 0.00 0.00 0.00 0.00
MSLP
1017.71 1017.90 1017.78 1017.55 1017.63 1017.31 1016.97 1016.84 1016.46 1016.27 1016.13 1015.76 1015.78 1015.81 1015.74 1015.62 1015.42 1015.35 1015.43 1015.51 1015.56 1015.52 1015.57 1015.65 1015.63 1015.53 1015.00 1014.10 1010.96 1008.56 1008.70 1008.77 1009.39 1009.58 1009.40 1009.16 1009.06 1008.80 1008.62 1008.14 1008.26 1008.83 1009.28 1009.29 1009.45 1009.61 1009.68
1017.34 1017.61 1017.56 1017.23 1017.22 1016.89 1016.52 1016.38 1016.01 1015.86 1015.53 1015.28 1015.34 1015.35 1015.25 1015.12 1015.04 1015.11 1015.22 1015.38 1015.42 1015.41 1015.38 1015.47 1015.42 1015.32 1014.82 1012.42 1008.55 1008.01 1008.00 1008.39 1008.65 1009.03 1008.61 1008.54 1008.03 1007.75 1007.61 1007.86 1008.27 1008.78 1009.34 1009.81 1009.91 1009.95 1009.96
1016.98 1017.24 1017.19 1016.98 1016.78 1016.37 1016.21 1016.03 1015.70 1015.23 1014.95 1014.84 1014.87 1014.85 1014.73 1014.73 1014.74 1014.82 1014.92 1014.99 1015.06 1015.13 1015.12 1015.24 1015.16 1014.97 1013.55 1010.55 1008.52 1008.05 1007.95 1007.84 1007.68 1007.72 1007.73 1007.28 1007.38 1007.63 1007.94 1008.14 1008.37 1008.80 1009.82 1010.01 1010.34 1010.25 1010.31
1016.78 1016.77 1016.76 1016.60 1016.44 1015.96 1015.82 1015.70 1015.08 1014.75 1014.63 1014.53 1014.43 1014.41 1014.44 1014.36 1014.44 1014.59 1014.61 1014.68 1014.75 1014.83 1014.96 1015.01 1015.01 1014.56 1012.20 1008.69 1008.41 1008.20 1007.94 1007.82 1007.57 1007.52 1007.56 1007.47 1007.44 1007.81 1008.09 1008.13 1008.66 1009.31 1009.94 1010.55 1010.28 1010.19 1010.35
1016.42 1016.38 1016.24 1016.18 1016.02 1015.53 1015.45 1015.20 1014.63 1014.44 1014.32 1014.07 1014.09 1014.07 1014.05 1014.04 1014.28 1014.24 1014.26 1014.47 1014.51 1014.54 1014.71 1014.83 1014.81 1013.89 1011.03 1008.61 1008.52 1008.21 1008.00 1008.16 1007.83 1007.91 1007.96 1007.85 1008.00 1008.43 1008.52 1009.13 1009.83 1009.90 1010.21 1010.51 1010.39 1009.95 1010.41
1015.94 1015.97 1015.78 1015.87 1015.46 1015.27 1015.05 1014.82 1014.22 1014.23 1013.93 1013.80 1013.83 1013.76 1013.71 1013.83 1013.94 1014.05 1014.24 1014.28 1014.24 1014.20 1014.15 1014.06 1013.47 1013.18 1010.17 1008.82 1008.36 1008.23 1008.16 1008.20 1008.34 1008.31 1008.55 1008.63 1008.94 1009.17 1009.52 1010.06 1010.34 1010.22 1009.99 1010.13 1010.30 1010.37 1010.46
1015.37 1015.52 1015.45 1015.40 1015.22 1014.79 1014.79 1014.45 1013.96 1013.93 1013.56 1013.63 1013.53 1013.51 1013.54 1013.63 1013.90 1014.05 1014.50 1014.33 1014.27 1014.01 1013.26 1012.05 1011.20 1010.21 1008.91 1008.50 1008.34 1008.47 1008.29 1008.39 1008.46 1008.65 1009.10 1009.00 1009.87 1010.02 1010.04 1009.89 1009.92 1010.06 1010.11 1010.59 1010.90 1010.80 1010.97
1014.74 1015.05 1015.12 1015.02 1014.89 1014.43 1014.48 1014.08 1013.81 1013.54 1013.45 1013.41 1013.24 1013.34 1013.42 1013.47 1013.76 1014.09 1014.40 1013.42 1011.84 1011.84 1011.74 1010.61 1009.77 1009.41 1008.65 1008.42 1008.37 1008.34 1008.26 1008.79 1008.78 1009.20 1009.29 1009.72 1010.29 1010.11 1010.01 1010.14 1010.26 1010.25 1010.69 1011.38 1011.43 1011.25 1011.44
1014.25 1014.53 1014.79 1014.65 1014.46 1014.20 1014.13 1013.78 1013.63 1013.21 1013.31 1013.16 1013.26 1013.20 1013.31 1013.51 1013.78 1014.20 1013.37 1012.02 1010.71 1010.78 1010.69 1009.85 1009.15 1008.79 1008.57 1008.57 1008.41 1008.44 1008.62 1008.86 1009.05 1009.41 1009.57 1010.09 1010.59 1010.29 1010.19 1010.49 1010.84 1011.30 1011.66 1012.01 1012.24 1012.12 1012.19
1013.89 1014.12 1014.37 1014.37 1014.13 1013.84 1013.83 1013.61 1013.39 1013.16 1013.13 1012.90 1012.97 1013.03 1013.21 1013.37 1013.95 1012.64 1012.36 1010.78 1010.39 1010.53 1010.71 1009.95 1009.11 1008.57 1008.49 1008.35 1008.73 1008.74 1008.71 1009.12 1008.85 1009.22 1009.88 1010.65 1010.66 1010.60 1010.57 1011.11 1011.55 1011.91 1012.29 1012.63 1013.04 1013.47 1013.52
1013.46 1013.77 1014.00 1013.91 1013.76 1013.63 1013.58 1013.40 1013.10 1013.06 1013.05 1012.91 1012.98 1012.89 1013.00 1012.94 1013.21 1012.19 1011.26 1010.44 1010.33 1010.63 1010.73 1009.66 1008.67 1008.24 1008.34 1008.80 1009.04 1009.02 1008.77 1008.94 1009.30 1009.48 1009.98 1011.16 1011.13 1011.24 1011.34 1011.89 1012.09 1012.67 1012.84 1013.26 1013.76 1014.35 1014.60
1013.21 1013.36 1013.57 1013.62 1013.36 1013.52 1013.40 1013.23 1012.82 1012.80 1012.73 1012.74 1012.64 1012.68 1013.17 1013.44 1013.03 1011.55 1010.91 1010.81 1010.87 1011.58 1010.41 1009.33 1008.74 1008.61 1008.99 1008.98 1009.05 1009.24 1009.28 1009.31 1009.36 1010.07 1010.84 1011.48 1011.55 1012.01 1012.19 1012.13 1012.26 1012.66 1013.21 1013.63 1014.30 1015.13 1015.69
1012.85 1012.96 1013.30 1013.22 1013.13 1013.35 1013.30 1013.08 1012.86 1012.72 1012.58 1012.44 1012.39 1012.42 1012.66 1012.04 1012.11 1011.26 1011.29 1011.43 1011.96 1011.07 1009.77 1009.62 1009.12 1009.01 1009.33 1009.44 1009.65 1009.79 1010.00 1010.43 1011.03 1011.47 1012.08 1012.21 1012.41 1012.46 1012.38 1012.38 1012.54 1013.11 1013.85 1014.98 1016.21 1016.89 1017.01
1012.42 1012.70 1013.03 1012.82 1013.03 1013.19 1013.25 1012.98 1012.80 1012.69 1012.56 1012.42 1012.42 1012.52 1012.10 1011.68 1011.50 1011.44 1011.82 1012.24 1011.88 1009.98 1009.49 1009.11 1009.13 1009.36 1009.84 1009.94 1010.21 1010.42 1010.87 1011.70 1011.98 1012.26 1012.55 1012.78 1013.42 1013.06 1013.01 1013.18 1013.51 1013.74 1014.57 1016.25 1017.75 1018.88 1018.38
1012.12 1012.35 1012.69 1012.66 1013.06 1013.23 1013.03 1012.81 1012.78 1012.70 1012.57 1012.57 1012.30 1012.34 1012.12 1011.86 1011.56 1011.78 1012.60 1012.72 1011.12 1009.93 1009.08 1009.20 1009.46 1009.82 1010.25 1010.55 1010.93 1011.30 1012.09 1012.75 1013.28 1013.19 1013.45 1013.47 1014.08 1013.88 1013.70 1013.62 1013.77 1014.23 1015.25 1016.21 1017.88 1019.41 1019.98
1011.70 1012.17 1012.41 1012.57 1013.01 1013.15 1013.06 1012.81 1012.77 1012.68 1012.55 1012.48 1012.24 1012.40 1012.13 1011.65 1011.62 1012.30 1012.89 1012.41 1010.67 1009.76 1009.16 1009.12 1009.67 1009.78 1010.37 1010.92 1011.39 1011.77 1012.61 1013.36 1013.77 1013.76 1013.49 1014.07 1014.49 1014.31 1014.16 1014.06 1014.14 1014.49 1015.45 1016.71 1018.48 1020.53 1020.99
1011.54 1012.00 1012.31 1012.49 1012.97 1012.90 1012.96 1012.63 1012.62 1012.52 1012.39 1012.25 1012.34 1012.56 1012.00 1011.56 1011.87 1012.78 1013.21 1011.97 1010.58 1009.85 1009.80 1009.67 1009.66 1009.69 1010.03 1010.84 1011.44 1012.18 1013.31 1014.10 1014.22 1014.24 1014.24 1014.77 1014.99 1015.34 1014.82 1015.04 1015.05 1015.25 1015.94 1017.19 1018.80 1020.76 1021.79
1011.53 1011.85 1012.13 1012.54 1012.79 1012.64 1012.68 1012.54 1012.44 1012.34 1012.21 1012.11 1012.25 1012.84 1011.93 1011.97 1012.76 1012.82 1012.71 1011.35 1010.49 1010.33 1010.09 1009.86 1009.79 1009.79 1010.49 1011.01 1011.86 1012.76 1014.13 1014.68 1014.82 1014.95 1015.45 1015.76 1016.19 1016.47 1016.28 1015.79 1015.46 1015.69 1016.50 1017.81 1020.11 1021.64 1022.43
1011.47 1011.72 1011.93 1012.43 1012.58 1012.51 1012.49 1012.36 1012.33 1012.24 1011.94 1012.03 1012.32 1012.43 1012.09 1012.31 1012.88 1013.04 1012.02 1011.20 1010.61 1010.61 1010.39 1010.29 1010.33 1010.60 1010.91 1011.77 1012.85 1013.69 1014.90 1015.48 1015.48 1015.88 1016.43 1016.61 1016.99 1017.59 1017.47 1017.04 1016.42 1016.42 1016.92 1018.01 1019.80 1021.35 1022.52
1011.31 1011.70 1011.95 1012.26 1012.32 1012.38 1012.33 1012.35 1012.25 1012.01 1011.72 1012.10 1012.26 1012.54 1012.74 1012.72 1012.31 1012.45 1012.02 1011.47 1011.13 1010.83 1010.70 1010.56 1010.87 1011.18 1011.78 1012.50 1013.12 1014.49 1015.50 1016.11 1016.34 1016.65 1016.89 1017.08 1017.50 1018.29 1018.42 1018.01 1017.54 1017.43 1017.62 1018.14 1019.42 1021.09 1021.64
1011.19 1011.66 1011.97 1012.21 1012.36 1012.25 1012.26 1012.25 1012.04 1011.74 1011.67 1012.09 1011.83 1011.81 1011.73 1012.61 1012.49 1012.40 1011.79 1011.49 1011.50 1011.50 1011.22 1011.23 1011.62 1011.93 1012.46 1013.44 1014.19 1015.19 1016.07 1016.75 1017.09 1017.39 1017.49 1017.92 1018.94 1019.32 1019.29 1018.92 1018.50 1018.18 1018.17 1018.50 1019.00 1019.54 1020.25
1011.22 1011.63 1012.07 1012.28 1012.45 1012.28 1012.20 1012.01 1011.82 1011.67 1011.75 1012.12 1011.60 1011.16 1011.20 1011.78 1012.04 1012.05 1011.74 1011.49 1011.45 1011.53 1011.69 1011.94 1012.22 1012.51 1013.15 1014.49 1015.28 1015.69 1016.05 1016.69 1017.20 1017.72 1018.08 1018.81 1020.24 1020.88 1021.00 1020.40 1019.88 1019.24 1018.72 1018.45 1018.49 1018.76 1019.12
1011.29 1011.70 1012.06 1012.25 1012.50 1012.25 1012.10 1011.80 1011.67 1011.56 1011.62 1011.65 1010.97 1010.37 1011.01 1012.16 1012.29 1012.26 1011.75 1011.24 1011.25 1011.53 1012.18 1012.26 1012.76 1013.87 1014.64 1015.64 1015.93 1016.48 1016.53 1016.85 1017.28 1017.97 1018.91 1020.11 1021.66 1022.72 1022.88 1022.16 1021.26 1020.26 1018.79 1018.28 1018.16 1018.52 1019.01
1011.34 1011.77 1012.13 1012.28 1012.42 1012.24 1011.97 1011.70 1011.59 1011.38 1011.23 1011.11 1010.98 1010.94 1012.15 1013.24 1012.65 1012.08 1011.64 1011.51 1011.98 1012.07 1012.86 1013.52 1013.55 1014.12 1015.78 1015.99 1016.52 1017.25 1017.92 1018.19 1018.31 1018.86 1019.37 1021.08 1022.61 1023.85 1024.87 1023.78 1022.54 1019.70 1018.51 1018.04 1018.35 1018.97 1019.38
1011.43 1011.86 1012.13 1012.31 1012.46 1012.21 1012.00 1011.75 1011.54 1011.23 1010.88 1010.81 1010.94 1011.38 1012.75 1013.61 1012.83 1012.12 1011.75 1012.22 1012.61 1013.20 1014.22 1014.65 1014.85 1014.88 1015.64 1016.99 1019.03 1020.38 1021.22 1020.65 1020.20 1020.25 1020.64 1021.26 1023.17 1025.39 1025.94 1025.30 1022.87 1019.95 1018.72 1018.53 1018.89 1020.23 1020.52
1011.51 1011.96 1012.23 1012.45 1012.43 1012.32 1012.12 1012.02 1011.80 1011.28 1010.81 1010.78 1011.58 1011.57 1012.20 1013.17 1013.23 1012.18 1012.01 1012.31 1013.56 1014.39 1015.44 1016.05 1016.02 1015.99 1016.64 1018.98 1021.02 1022.14 1022.15 1021.41 1021.51 1021.60 1022.01 1022.61 1023.59 1025.08 1026.38 1026.08 1023.84 1020.52 1019.15 1018.76 1019.15 1020.69 1021.28
1011.59 1012.01 1012.28 1012.43 1012.49 1012.44 1012.36 1012.30 1012.01 1011.62 1011.20 1011.07 1011.79 1011.54 1011.94 1013.10 1012.87 1012.40 1012.49 1012.58 1013.37 1014.55 1015.99 1016.68 1017.09 1017.33 1017.94 1020.87 1022.65 1023.48 1022.66 1021.59 1021.87 1022.27 1022.98 1023.93 1024.69 1025.54 1025.84 1025.42 1022.85 1020.12 1019.33 1019.11 1020.30 1021.26 1021.53
1011.61 1012.05 1012.30 1012.51 1012.60 1012.58 1012.55 1012.44 1012.11 1011.84 1011.55 1011.29 1012.02 1011.55 1011.94 1013.31 1013.47 1013.12 1012.90 1012.94 1013.34 1014.43 1015.86 1016.64 1017.66 1018.13 1019.62 1021.62 1022.95 1023.41 1023.11 1022.12 1021.92 1021.73 1022.14 1023.09 1024.26 1024.92 1024.99 1024.23 1021.84 1019.38 1019.31 1019.94 1020.47 1020.92 1021.49
1011.67 1012.10 1012.43 1012.70 1012.83 1012.82 1012.76 1012.67 1012.35 1012.11 1011.83 1011.51 1012.17 1011.66 1011.72 1013.03 1014.09 1013.77 1013.80 1013.73 1013.85 1014.23 1014.69 1015.85 1016.65 1017.45 1018.61 1020.80 1022.25 1022.81 1023.13 1022.78 1022.53 1021.82 1020.88 1021.63 1021.19 1021.87 1022.47 1021.26 1019.57 1019.17 1019.18 1019.64 1020.12 1021.05 1021.68
Thickness
5602 5599 5600 5601 5599 5602 5605 5606 5610 5611 5613 5616 5616 5616 5618 5618 5623 5626 5628 5631 5633 5635 5636 5637 5639 5642 5649 5651 5667 5707 5712 5715 5714 5715 5713 5712 5708 5711 5704 5717 5719 5702 5708 5717 5721 5719 5720
5597 5594 5595 5598 5596 5600 5603 5605 5609 5610 5613 5616 5616 5617 5618 5620 5623 5624 5626 5629 5631 5633 5635 5637 5639 5642 5646 5647 5703 5712 5715 5715 5714 5710 5712 5712 5715 5726 5722 5716 5710 5714 5709 5707 5715 5716 5721
5593 5591 5591 5593 5594 5599 5601 5604 5607 5611 5614 5616 5616 5616 5617 5619 5621 5623 5626 5630 5632 5634 5636 5637 5641 5644 5651 5664 5701 5709 5715 5717 5723 5722 5714 5727 5729 5720 5718 5711 5724 5717 5699 5704 5706 5711 5710
5587 5587 5588 5590 5594 5598 5599 5602 5608 5611 5613 5615 5616 5616 5617 5620 5621 5623 5627 5630 5633 5635 5636 5639 5642 5648 5653 5701 5708 5710 5716 5718 5728 5731 5729 5731 5733 5724 5718 5725 5718 5706 5699 5677 5703 5710 5713
5582 5584 5587 5588 5592 5597 5598 5602 5608 5610 5613 5615 5616 5618 5620 5622 5623 5626 5630 5632 5634 5637 5639 5641 5645 5650 5657 5704 5697 5712 5718 5709 5717 5725 5729 5732 5728 5716 5718 5696 5679 5694 5670 5679 5693 5714 5710
5578 5581 5585 5585 5592 5594 5598 5601 5608 5610 5613 5614 5616 5619 5623 5625 5627 5629 5630 5632 5636 5641 5645 5648 5656 5649 5677 5684 5702 5711 5720 5719 5710 5714 5711 5712 5705 5691 5687 5676 5654 5675 5682 5693 5682 5705 5710
5576 5577 5581 5584 5589 5594 5596 5601 5608 5609 5613 5614 5616 5618 5622 5624 5627 5629 5629 5634 5637 5640 5649 5655 5662 5674 5688 5701 5710 5704 5715 5712 5713 5706 5684 5700 5676 5666 5684 5696 5702 5700 5694 5680 5689 5702 5701
5575 5575 5578 5582 5586 5593 5595 5601 5607 5611 5613 5615 5618 5619 5620 5626 5628 5629 5630 5639 5653 5660 5648 5677 5683 5687 5700 5705 5691 5703 5718 5697 5698 5681 5694 5683 5668 5692 5703 5702 5697 5698 5690 5677 5689 5702 5696
5572 5574 5575 5580 5585 5591 5594 5601 5606 5612 5613 5617 5617 5622 5624 5626 5628 5630 5642 5655 5672 5675 5655 5675 5688 5688 5694 5701 5692 5695 5708 5700 5690 5684 5688 5673 5683 5700 5697 5687 5683 5680 5674 5676 5677 5688 5695
5568 5572 5574 5578 5583 5590 5593 5600 5605 5609 5613 5618 5621 5623 5625 5629 5630 5646 5647 5671 5678 5679 5639 5661 5675 5689 5697 5702 5687 5709 5714 5701 5698 5686 5684 5679 5693 5690 5690 5681 5679 5669 5685 5681 5675 5665 5646
5566 5570 5572 5576 5582 5588 5593 5599 5604 5607 5611 5616 5620 5624 5629 5635 5638 5648 5661 5675 5680 5673 5599 5668 5681 5708 5703 5690 5690 5694 5715 5703 5684 5689 5686 5673 5679 5674 5674 5675 5680 5669 5682 5675 5672 5659 5656
5561 5567 5571 5574 5581 5585 5591 5597 5603 5608 5612 5617 5622 5627 5630 5634 5642 5658 5669 5674 5670 5625 5617 5665 5684 5682 5680 5690 5692 5695 5696 5706 5704 5686 5681 5677 5689 5678 5673 5682 5682 5682 5671 5669 5665 5653 5617
5558 5565 5569 5573 5579 5582 5588 5595 5601 5607 5613 5619 5624 5631 5636 5646 5646 5664 5668 5662 5619 5608 5674 5663 5670 5681 5677 5677 5679 5682 5678 5671 5659 5653 5653 5668 5667 5676 5681 5667 5677 5668 5651 5611 5610 5598 5605
5555 5562 5564 5572 5576 5580 5585 5592 5599 5606 5613 5619 5626 5633 5642 5649 5657 5663 5661 5639 5624 5664 5666 5683 5680 5679 5665 5676 5673 5675 5667 5653 5664 5663 5654 5642 5632 5659 5672 5662 5655 5656 5652 5597 5607 5586 5601
5552 5559 5562 5569 5572 5577 5583 5590 5597 5605 5612 5618 5628 5635 5641 5649 5656 5660 5644 5615 5634 5662 5680 5673 5674 5660 5660 5668 5666 5663 5652 5649 5652 5657 5645 5640 5636 5662 5663 5666 5661 5649 5628 5650 5616 5608 5584
5551 5555 5559 5566 5569 5574 5579 5587 5595 5604 5612 5619 5628 5631 5638 5650 5656 5651 5631 5624 5659 5676 5683 5679 5656 5664 5648 5653 5654 5655 5652 5655 5651 5659 5665 5655 5632 5657 5660 5665 5664 5653 5655 5611 5601 5587 5595
5547 5552 5556 5563 5566 5572 5578 5587 5596 5604 5612 5621 5625 5622 5639 5650 5652 5636 5618 5637 5665 5678 5673 5666 5663 5665 5664 5654 5657 5653 5645 5649 5654 5658 5657 5649 5641 5640 5657 5641 5636 5634 5629 5629 5621 5589 5569
5544 5549 5554 5558 5563 5571 5577 5586 5596 5605 5613 5622 5623 5611 5640 5647 5624 5629 5630 5656 5662 5666 5673 5671 5671 5671 5662 5664 5654 5650 5637 5640 5655 5654 5642 5648 5632 5606 5632 5648 5653 5647 5636 5626 5575 5588 5562
5541 5547 5553 5556 5561 5569 5576 5586 5596 5605 5616 5621 5618 5620 5638 5639 5608 5611 5644 5657 5666 5659 5662 5664 5660 5664 5666 5654 5638 5640 5634 5642 5647 5642 5633 5641 5628 5592 5612 5627 5639 5635 5634 5622 5599 5573 5571
5538 5544 5549 5555 5561 5568 5576 5585 5596 5606 5615 5619 5618 5605 5621 5629 5637 5638 5642 5648 5650 5660 5661 5666 5661 5664 5657 5648 5653 5634 5630 5638 5640 5639 5635 5639 5635 5611 5589 5617 5624 5620 5621 5621 5596 5555 5565
5538 5542 5547 5552 5559 5567 5575 5584 5595 5606 5613 5615 5620 5621 5629 5609 5625 5636 5647 5646 5642 5641 5657 5661 5653 5654 5649 5638 5639 5629 5628 5628 5633 5630 5637 5631 5614 5618 5618 5621 5622 5620 5614 5609 5603 5594 5569
5535 5540 5544 5550 5556 5565 5574 5583 5594 5604 5610 5612 5617 5624 5635 5628 5639 5640 5635 5643 5642 5645 5646 5644 5646 5651 5645 5631 5630 5629 5632 5629 5626 5629 5631 5624 5596 5606 5602 5609 5605 5602 5600 5600 5601 5601 5597
5532 5538 5543 5549 5554 5563 5573 5583 5592 5601 5609 5611 5625 5638 5631 5623 5630 5624 5633 5649 5649 5647 5647 5650 5644 5627 5621 5626 5629 5629 5632 5632 5631 5624 5618 5608 5586 5572 5575 5584 5577 5569 5595 5603 5604 5598 5590
5530 5536 5541 5547 5553 5562 5571 5581 5590 5599 5608 5618 5625 5630 5615 5605 5621 5629 5643 5646 5637 5645 5635 5633 5637 5628 5628 5632 5628 5621 5616 5616 5621 5617 5617 5592 5582 5553 5540 5550 5548 5596 5608 5604 5593 5584 5582
5528 5535 5541 5546 5551 5560 5569 5579 5588 5597 5609 5617 5620 5623 5606 5583 5619 5632 5641 5630 5629 5629 5622 5623 5627 5631 5630 5620 5591 5589 5572 5577 5592 5603 5604 5601 5565 5533 5544 5543 5569 5591 5598 5589 5577 5565 5565
5527 5533 5538 5543 5550 5557 5566 5574 5583 5595 5606 5611 5611 5619 5613 5591 5601 5630 5630 5627 5611 5611 5608 5609 5617 5620 5618 5579 5561 5559 5565 5582 5579 5588 5582 5581 5565 5544 5517 5524 5515 5569 5586 5588 5582 5536 5553
5525 5531 5536 5541 5548 5555 5562 5569 5578 5588 5597 5605 5604 5614 5615 5600 5613 5620 5615 5615 5619 5610 5594 5599 5602 5602 5604 5553 5556 5549 5565 5589 5570 5566 5545 5530 5546 5533 5508 5510 5540 5573 5579 5580 5544 5537 5543
5524 5529 5534 5539 5545 5552 5558 5565 5573 5582 5590 5598 5598 5608 5608 5595 5602 5610 5615 5614 5617 5606 5586 5595 5582 5580 5559 5562 5548 5545 5547 5560 5573 5577 5561 5541 5526 5523 5535 5538 5520 5577 5570 5550 5543 5543 5532
5521 5526 5531 5535 5541 5547 5554 5560 5569 5576 5584 5592 5590 5601 5606 5598 5591 5600 5603 5607 5608 5608 5602 5595 5590 5590 5579 5560 5546 5549 5547 5552 5549 5553 5580 5558 5558 5540 5542 5540 5565 5568 5563 5554 5542 5526 5519